TimeCST,TemperatureF,Dew PointF,Humidity,Sea Level PressureIn,VisibilityMPH,Wind Direction,Wind SpeedMPH,Gust SpeedMPH,PrecipitationIn,Events,Conditions,WindDirDegrees,DateUTC
12:53 AM,25.0,19.0,78,30.30,10.0,SE,8.1,-,N/A,,Clear,130,2013-03-07 06:53:00
1:53 AM,24.1,19.0,81,30.31,10.0,ESE,4.6,-,N/A,,Clear,120,2013-03-07 07:53:00
2:53 AM,24.1,19.0,81,30.27,10.0,SE,8.1,-,N/A,,Clear,140,2013-03-07 08:53:00
3:53 AM,23.0,18.0,81,30.28,10.0,ESE,5.8,-,N/A,,Clear,120,2013-03-07 09:53:00
4:53 AM,23.0,18.0,81,30.28,10.0,ESE,6.9,-,N/A,,Clear,120,2013-03-07 10:53:00
5:53 AM,23.0,18.0,81,30.27,10.0,ESE,8.1,-,N/A,,Clear,120,2013-03-07 11:53:00
6:53 AM,23.0,18.0,81,30.29,10.0,ESE,10.4,-,N/A,,Clear,110,2013-03-07 12:53:00
7:53 AM,26.1,19.9,78,30.29,10.0,ESE,10.4,-,N/A,,Clear,110,2013-03-07 13:53:00
8:53 AM,30.2,21.2,69,30.25,10.0,ESE,15.0,-,N/A,,Clear,120,2013-03-07 14:53:00
9:53 AM,35.1,24.1,64,30.28,10.0,ESE,12.7,-,N/A,,Clear,110,2013-03-07 15:53:00
10:53 AM,41.0,25.0,53,30.25,10.0,ESE,16.1,-,N/A,,Clear,120,2013-03-07 16:53:00
11:53 AM,46.0,25.0,44,30.23,10.0,SE,16.1,23.0,N/A,,Clear,140,2013-03-07 17:53:00
12:53 PM,48.9,26.1,41,30.20,10.0,SE,15.0,23.0,N/A,,Clear,140,2013-03-07 18:53:00
1:53 PM,52.0,26.1,37,30.15,10.0,SE,15.0,23.0,N/A,,Clear,140,2013-03-07 19:53:00
2:53 PM,52.0,25.0,35,30.13,10.0,SE,18.4,-,N/A,,Clear,140,2013-03-07 20:53:00
3:53 PM,52.0,26.1,37,30.13,10.0,SE,16.1,23.0,N/A,,Clear,130,2013-03-07 21:53:00
4:53 PM,50.0,27.0,41,30.14,10.0,SE,13.8,-,N/A,,Clear,140,2013-03-07 22:53:00
5:53 PM,44.1,27.0,51,30.16,10.0,ESE,12.7,-,N/A,,Clear,120,2013-03-07 23:53:00
6:53 PM,39.9,27.0,60,30.17,10.0,East,10.4,-,N/A,,Clear,100,2013-03-08 00:53:00
7:53 PM,37.0,27.0,67,30.18,10.0,ESE,12.7,-,N/A,,Clear,110,2013-03-08 01:53:00
8:53 PM,33.1,26.1,75,30.19,10.0,East,8.1,-,N/A,,Clear,100,2013-03-08 02:53:00
9:53 PM,33.1,26.1,75,30.20,10.0,ESE,8.1,-,N/A,,Clear,110,2013-03-08 03:53:00
10:53 PM,32.0,25.0,75,30.20,10.0,SE,5.8,-,N/A,,Clear,140,2013-03-08 04:53:00
11:53 PM,32.0,25.0,75,30.21,10.0,East,4.6,-,N/A,,Clear,100,2013-03-08 05:53:00